FENGYUN 1C DEB, 36200

Orbit data source: Space-Track

FENGYUN 1C DEB, 36200 is space debris in SSO originally from a launch on Mon, 10 May 1999 UTC launched from the Taiyaun Space Center, China (TSC). Fengyun 1C debris stems from the Chinese weather satellite Fengyun-1C, which was intentionally destroyed by a Chinese anti-satellite missile in 2007. This event dramatically increased the amount of space debris, with thousands of trackable fragments posing hazards to satellites and human spaceflight. The Fengyun 1C debris cloud has become a focal point in discussions about space sustainability and the need for international regulations to prevent the creation of new debris.

Loading next visibility...
Identifier
36200, 1999-025DTZ
Orbit
SSO
Country
Flag of CNCN / PRC
Related business
Manufacturer
Unknown
Mission
Spacecraft
Bus & Motor
Unknown
Mass
Unknown
Launch date (UTC)
1999-05-10 (27 years ago)
Launch vehicle
Unknown
Launch site
Taiyaun Space Center, China (TSC)
Object type
Payload
Rocket body
Debris
Shape & HBR
Unknown shape, 0.1 m
Radar Cross Section
Small (<0.1 m²)

Expand to show TLE details & history
Last TLE update: 3 days ago

TLE from 3 days ago
0 FENGYUN 1C DEB
1 36200U 99025DTZ 26162.09730203  .00021399  00000-0  38437-2 0  9998
2 36200  99.3823 265.5033 0034460 182.2313 177.8738 14.66311440759976
Epoch: 2026-06-11T02:20Z
TLE epoch observation values (Epoch: 2026-06-11T02:20:06.895Z)
Latitude
-0.00005°
Longitude
-28.97141°
Altitude
700.109 km
Speed
7.493 km/s
True Right ascension
17h 42m 00s
True Declination
0° 00' 00"
Sunlit
Object was in full shadow at epoch
Visualization orbit readout
Latitude
Unknown
Longitude
Unknown
Altitude
Unknown
Speed
Unknown
Apparent Right ascension
Unknown
Apparent Declination
Unknown
Sunlit
N/A
Visualization observer readout
Local Sidereal Time
10:11:47
Azimuth
Unknown
Elevation
Unknown
Doppler factor
Unknown
Orbital elements
Apogee altitude
694.287 km
Perigee altitude
645.711 km
Semi-major axis
7,048.136 km
Eccentricity
0.00345
Inclination
99.3823°
RAAN
265.5033°
Arg. of periapsis
182.2313°
True anomaly
177.88839°
Mean anomaly
177.8738°
Eccentric anomaly
177.8811°
Mean motion
3.66802 °/min
Orbital period
98.15 mins
BSTAR
0.0038437
Loading maneuver chart data...
Computing Atmospheric mass density...

Documentation

Showing up to 5 results
|